Time,TemperatureF,DewpointF,PressureIn,WindDirection,WindDirectionDegrees,WindSpeedMPH,WindSpeedGustMPH,Humidity,HourlyPrecipIn,Conditions,Clouds,dailyrainin,SoftwareType,DateUTC
2013-01-20 00:15:00,4.3,-5.0,30.09,NNE,29,2.0,-999.0,65,-99.99,,,0.00,weatherlink.com 1.10,2013-01-20 06:15:00,
2013-01-20 00:30:00,4.1,-5.0,30.09,NE,49,0.0,-999.0,65,-99.99,,,0.00,weatherlink.com 1.10,2013-01-20 06:30:00,
2013-01-20 00:45:00,3.9,-5.0,30.09,WNW,285,3.0,-999.0,66,-99.99,,,0.00,weatherlink.com 1.10,2013-01-20 06:45:00,
2013-01-20 01:00:00,3.9,-5.0,30.10,WNW,294,2.0,-999.0,66,-99.99,,,0.00,weatherlink.com 1.10,2013-01-20 07:00:00,
2013-01-20 01:16:00,3.7,-5.0,30.13,East,93,1.0,-999.0,67,-99.99,,,0.00,weatherlink.com 1.10,2013-01-20 07:16:00,
2013-01-20 01:31:00,3.7,-5.0,30.14,NNE,14,2.0,-999.0,67,-99.99,,,0.00,weatherlink.com 1.10,2013-01-20 07:31:00,
2013-01-20 01:46:00,3.5,-5.0,30.16,West,275,2.0,-999.0,67,-99.99,,,0.00,weatherlink.com 1.10,2013-01-20 07:46:00,
2013-01-20 02:01:00,3.4,-5.0,30.16,NE,42,1.0,-999.0,67,-99.99,,,0.00,weatherlink.com 1.10,2013-01-20 08:01:00,
2013-01-20 02:16:00,3.2,-6.0,30.17,SW,234,3.0,-999.0,67,-99.99,,,0.00,weatherlink.com 1.10,2013-01-20 08:16:00,
2013-01-20 02:31:00,3.0,-6.0,30.18,North,9,0.0,-999.0,67,-99.99,,,0.00,weatherlink.com 1.10,2013-01-20 08:31:00,
2013-01-20 02:46:00,2.8,-6.0,30.18,ENE,62,2.0,-999.0,67,-99.99,,,0.00,weatherlink.com 1.10,2013-01-20 08:46:00,
2013-01-20 03:01:00,2.6,-6.0,30.19,WSW,246,4.0,-999.0,68,-99.99,,,0.00,weatherlink.com 1.10,2013-01-20 09:01:00,
2013-01-20 03:16:00,2.6,-6.0,30.20,ENE,70,3.0,-999.0,68,-99.99,,,0.00,weatherlink.com 1.10,2013-01-20 09:16:00,
2013-01-20 03:31:00,2.4,-6.0,30.21,West,271,5.0,-999.0,68,-99.99,,,0.00,weatherlink.com 1.10,2013-01-20 09:31:00,
2013-01-20 03:46:00,2.2,-6.0,30.21,NNE,29,4.0,-999.0,68,-99.99,,,0.00,weatherlink.com 1.10,2013-01-20 09:46:00,
2013-01-20 04:01:00,2.0,-6.0,30.21,NE,56,2.0,-999.0,68,-99.99,,,0.00,weatherlink.com 1.10,2013-01-20 10:01:00,
2013-01-20 04:17:00,1.8,-7.0,30.23,NNE,32,1.0,-999.0,68,-99.99,,,0.00,weatherlink.com 1.10,2013-01-20 10:17:00,
2013-01-20 04:32:00,1.7,-7.0,30.24,WNW,284,5.0,-999.0,68,-99.99,,,0.00,weatherlink.com 1.10,2013-01-20 10:32:00,
2013-01-20 04:47:00,1.5,-7.0,30.24,WNW,292,3.0,-999.0,68,-99.99,,,0.00,weatherlink.com 1.10,2013-01-20 10:47:00,
2013-01-20 05:02:00,1.5,-7.0,30.25,West,277,9.0,-999.0,68,-99.99,,,0.00,weatherlink.com 1.10,2013-01-20 11:02:00,
2013-01-20 05:17:00,1.3,-7.0,30.27,NW,311,3.0,-999.0,68,-99.99,,,0.00,weatherlink.com 1.10,2013-01-20 11:17:00,
2013-01-20 05:32:00,1.1,-7.0,30.26,North,350,2.0,-999.0,68,-99.99,,,0.00,weatherlink.com 1.10,2013-01-20 11:32:00,
2013-01-20 05:47:00,0.7,-8.0,30.27,NE,44,0.0,-999.0,68,-99.99,,,0.00,weatherlink.com 1.10,2013-01-20 11:47:00,
2013-01-20 06:02:00,0.5,-8.0,30.28,WNW,283,2.0,-999.0,68,-99.99,,,0.00,weatherlink.com 1.10,2013-01-20 12:02:00,
2013-01-20 06:17:00,0.5,-7.0,30.30,NW,309,1.0,-999.0,69,-99.99,,,0.00,weatherlink.com 1.10,2013-01-20 12:17:00,
2013-01-20 06:32:00,0.3,-8.0,30.30,WNW,295,4.0,-999.0,68,-99.99,,,0.00,weatherlink.com 1.10,2013-01-20 12:32:00,
2013-01-20 06:47:00,0.1,-8.0,30.30,NNW,327,1.0,-999.0,68,-99.99,,,0.00,weatherlink.com 1.10,2013-01-20 12:47:00,
2013-01-20 07:02:00,0.0,-8.0,30.30,NNW,329,0.0,-999.0,68,-99.99,,,0.00,weatherlink.com 1.10,2013-01-20 13:02:00,
2013-01-20 07:18:00,0.0,-8.0,30.30,West,278,2.0,-999.0,69,-99.99,,,0.00,weatherlink.com 1.10,2013-01-20 13:18:00,
2013-01-20 07:33:00,-0.2,-8.0,30.31,NNE,23,1.0,-999.0,68,-99.99,,,0.00,weatherlink.com 1.10,2013-01-20 13:33:00,
2013-01-20 07:48:00,-0.2,-8.0,30.31,North,355,1.0,-999.0,68,-99.99,,,0.00,weatherlink.com 1.10,2013-01-20 13:48:00,
2013-01-20 08:03:00,-0.4,-8.0,30.32,WSW,258,3.0,-999.0,69,-99.99,,,0.00,weatherlink.com 1.10,2013-01-20 14:03:00,
2013-01-20 08:18:00,-0.4,-8.0,30.32,NW,325,1.0,-999.0,69,-99.99,,,0.00,weatherlink.com 1.10,2013-01-20 14:18:00,
2013-01-20 08:33:00,-0.4,-9.0,30.32,North,5,0.0,-999.0,68,-99.99,,,0.00,weatherlink.com 1.10,2013-01-20 14:33:00,
2013-01-20 08:48:00,0.0,-8.0,30.33,East,98,1.0,-999.0,68,-99.99,,,0.00,weatherlink.com 1.10,2013-01-20 14:48:00,
2013-01-20 09:03:00,0.3,-8.0,30.33,NNW,343,1.0,-999.0,67,-99.99,,,0.00,weatherlink.com 1.10,2013-01-20 15:03:00,
2013-01-20 09:19:00,0.3,-9.0,30.34,WNW,286,2.0,-999.0,66,-99.99,,,0.00,weatherlink.com 1.10,2013-01-20 15:19:00,
2013-01-20 09:34:00,0.5,-8.0,30.34,NNE,14,0.0,-999.0,66,-99.99,,,0.00,weatherlink.com 1.10,2013-01-20 15:34:00,
2013-01-20 09:49:00,0.9,-8.0,30.35,WNW,286,1.0,-999.0,66,-99.99,,,0.00,weatherlink.com 1.10,2013-01-20 15:49:00,
2013-01-20 10:04:00,1.5,-8.0,30.35,West,275,2.0,-999.0,65,-99.99,,,0.00,weatherlink.com 1.10,2013-01-20 16:04:00,
2013-01-20 10:19:00,2.4,-8.0,30.36,West,277,3.0,-999.0,63,-99.99,,,0.00,weatherlink.com 1.10,2013-01-20 16:19:00,
2013-01-20 10:34:00,3.5,-7.0,30.36,WSW,248,1.0,-999.0,61,-99.99,,,0.00,weatherlink.com 1.10,2013-01-20 16:34:00,
2013-01-20 10:49:00,4.7,-7.0,30.36,WNW,291,5.0,-999.0,58,-99.99,,,0.00,weatherlink.com 1.10,2013-01-20 16:49:00,
2013-01-20 11:05:00,5.2,-7.0,30.36,West,277,2.0,-999.0,57,-99.99,,,0.00,weatherlink.com 1.10,2013-01-20 17:05:00,
2013-01-20 11:19:00,6.0,-7.0,30.36,WNW,298,2.0,-999.0,56,-99.99,,,0.00,weatherlink.com 1.10,2013-01-20 17:19:00,
2013-01-20 11:34:00,6.5,-7.0,30.35,West,277,4.0,-999.0,54,-99.99,,,0.00,weatherlink.com 1.10,2013-01-20 17:34:00,
2013-01-20 11:49:00,6.9,-7.0,30.34,WNW,303,2.0,-999.0,52,-99.99,,,0.00,weatherlink.com 1.10,2013-01-20 17:49:00,
2013-01-20 12:04:00,7.2,-6.0,30.33,WNW,294,0.0,-999.0,54,-99.99,,,0.00,weatherlink.com 1.10,2013-01-20 18:04:00,
2013-01-20 12:19:00,7.7,-7.0,30.33,West,280,1.0,-999.0,52,-99.99,,,0.00,weatherlink.com 1.10,2013-01-20 18:19:00,
2013-01-20 12:34:00,7.7,-7.0,30.32,East,87,1.0,-999.0,51,-99.99,,,0.00,weatherlink.com 1.10,2013-01-20 18:34:00,
2013-01-20 12:49:00,7.6,-7.0,30.32,North,360,3.0,-999.0,52,-99.99,,,0.00,weatherlink.com 1.10,2013-01-20 18:49:00,
2013-01-20 13:04:00,7.4,-8.0,30.32,WNW,291,2.0,-999.0,50,-99.99,,,0.00,weatherlink.com 1.10,2013-01-20 19:04:00,
2013-01-20 13:19:00,8.1,-7.0,30.31,West,275,2.0,-999.0,50,-99.99,,,0.00,weatherlink.com 1.10,2013-01-20 19:19:00,
2013-01-20 13:34:00,8.6,-7.0,30.31,SW,228,9.0,-999.0,49,-99.99,,,0.00,weatherlink.com 1.10,2013-01-20 19:34:00,
2013-01-20 13:49:00,9.0,-7.0,30.30,NNE,24,3.0,-999.0,48,-99.99,,,0.00,weatherlink.com 1.10,2013-01-20 19:49:00,
2013-01-20 14:06:00,8.4,-8.0,30.30,West,269,4.0,-999.0,48,-99.99,,,0.00,weatherlink.com 1.10,2013-01-20 20:06:00,
2013-01-20 14:21:00,8.6,-8.0,30.30,NW,313,3.0,-999.0,48,-99.99,,,0.00,weatherlink.com 1.10,2013-01-20 20:21:00,
2013-01-20 14:36:00,9.0,-7.0,30.29,North,355,1.0,-999.0,49,-99.99,,,0.00,weatherlink.com 1.10,2013-01-20 20:36:00,
2013-01-20 14:51:00,9.5,-8.0,30.29,North,5,8.0,-999.0,45,-99.99,,,0.00,weatherlink.com 1.10,2013-01-20 20:51:00,
2013-01-20 15:06:00,9.3,-8.0,30.29,WNW,294,3.0,-999.0,45,-99.99,,,0.00,weatherlink.com 1.10,2013-01-20 21:06:00,
2013-01-20 15:36:00,8.3,-8.0,30.28,NE,41,0.0,-999.0,48,-99.99,,,0.00,weatherlink.com 1.10,2013-01-20 21:36:00,
2013-01-20 15:51:00,7.7,-7.0,30.28,WNW,284,1.0,-999.0,50,-99.99,,,0.00,weatherlink.com 1.10,2013-01-20 21:51:00,
2013-01-20 16:06:00,7.4,-8.0,30.27,North,5,4.0,-999.0,50,-99.99,,,0.00,weatherlink.com 1.10,2013-01-20 22:06:00,
2013-01-20 16:21:00,7.0,-8.0,30.28,NNE,26,3.0,-999.0,51,-99.99,,,0.00,weatherlink.com 1.10,2013-01-20 22:21:00,
2013-01-20 16:36:00,6.9,-7.0,30.28,North,9,3.0,-999.0,52,-99.99,,,0.00,weatherlink.com 1.10,2013-01-20 22:36:00,
2013-01-20 16:51:00,6.7,-7.0,30.27,West,273,1.0,-999.0,53,-99.99,,,0.00,weatherlink.com 1.10,2013-01-20 22:51:00,
2013-01-20 17:07:00,6.3,-7.0,30.27,NNE,14,1.0,-999.0,54,-99.99,,,0.00,weatherlink.com 1.10,2013-01-20 23:07:00,
2013-01-20 17:22:00,6.1,-7.0,30.27,NNW,341,1.0,-999.0,55,-99.99,,,0.00,weatherlink.com 1.10,2013-01-20 23:22:00,
2013-01-20 17:37:00,6.1,-7.0,30.26,NNW,344,1.0,-999.0,56,-99.99,,,0.00,weatherlink.com 1.10,2013-01-20 23:37:00,
2013-01-20 17:52:00,6.0,-6.0,30.26,NNE,25,1.0,-999.0,57,-99.99,,,0.00,weatherlink.com 1.10,2013-01-20 23:52:00,
2013-01-20 18:07:00,6.0,-6.0,30.26,NNE,25,0.0,-999.0,58,-99.99,,,0.00,weatherlink.com 1.10,2013-01-21 00:07:00,
2013-01-20 18:22:00,6.0,-6.0,30.26,NNE,24,0.0,-999.0,58,-99.99,,,0.00,weatherlink.com 1.10,2013-01-21 00:22:00,
2013-01-20 18:52:00,6.3,-5.0,30.26,NNE,14,2.0,-999.0,59,-99.99,,,0.00,weatherlink.com 1.10,2013-01-21 00:52:00,
2013-01-20 19:07:00,6.3,-5.0,30.26,North,360,5.0,-999.0,59,-99.99,,,0.00,weatherlink.com 1.10,2013-01-21 01:07:00,
2013-01-20 19:37:00,5.8,-5.0,30.26,WNW,292,5.0,-999.0,61,-99.99,,,0.00,weatherlink.com 1.10,2013-01-21 01:37:00,
2013-01-20 19:52:00,5.6,-5.0,30.25,West,277,0.0,-999.0,61,-99.99,,,0.00,weatherlink.com 1.10,2013-01-21 01:52:00,
2013-01-20 20:08:00,5.2,-6.0,30.25,ENE,59,3.0,-999.0,59,-99.99,,,0.00,weatherlink.com 1.10,2013-01-21 02:08:00,
2013-01-20 20:23:00,4.8,-6.0,30.25,WSW,242,1.0,-999.0,60,-99.99,,,0.00,weatherlink.com 1.10,2013-01-21 02:23:00,
2013-01-20 20:38:00,4.7,-6.0,30.25,West,281,0.0,-999.0,62,-99.99,,,0.00,weatherlink.com 1.10,2013-01-21 02:38:00,
2013-01-20 20:53:00,4.5,-6.0,30.24,ENE,59,0.0,-999.0,63,-99.99,,,0.00,weatherlink.com 1.10,2013-01-21 02:53:00,
2013-01-20 21:08:00,4.1,-6.0,30.23,NW,319,0.0,-999.0,64,-99.99,,,0.00,weatherlink.com 1.10,2013-01-21 03:08:00,
2013-01-20 21:23:00,3.9,-5.0,30.23,NW,309,0.0,-999.0,66,-99.99,,,0.00,weatherlink.com 1.10,2013-01-21 03:23:00,
2013-01-20 21:38:00,3.7,-5.0,30.23,West,281,3.0,-999.0,67,-99.99,,,0.00,weatherlink.com 1.10,2013-01-21 03:38:00,
2013-01-20 21:53:00,3.7,-4.0,30.22,NW,323,1.0,-999.0,69,-99.99,,,0.00,weatherlink.com 1.10,2013-01-21 03:53:00,
2013-01-20 22:09:00,3.7,-4.0,30.22,West,271,0.0,-999.0,70,-99.99,,,0.00,weatherlink.com 1.10,2013-01-21 04:09:00,
2013-01-20 22:24:00,3.5,-4.0,30.22,West,271,0.0,-999.0,71,-99.99,,,0.00,weatherlink.com 1.10,2013-01-21 04:24:00,
2013-01-20 22:39:00,3.5,-4.0,30.22,NE,37,0.0,-999.0,72,-99.99,,,0.00,weatherlink.com 1.10,2013-01-21 04:39:00,
2013-01-20 22:54:00,3.5,-4.0,30.22,WNW,289,0.0,-999.0,72,-99.99,,,0.00,weatherlink.com 1.10,2013-01-21 04:54:00,
2013-01-20 23:09:00,3.5,-4.0,30.21,NE,34,0.0,-999.0,72,-99.99,,,0.00,weatherlink.com 1.10,2013-01-21 05:09:00,
2013-01-20 23:24:00,3.4,-4.0,30.21,West,277,2.0,-999.0,72,-99.99,,,0.00,weatherlink.com 1.10,2013-01-21 05:24:00,
2013-01-20 23:39:00,3.0,-4.0,30.21,NNE,19,1.0,-999.0,73,-99.99,,,0.00,weatherlink.com 1.10,2013-01-21 05:39:00,
2013-01-20 23:54:00,2.4,-6.0,30.21,North,5,4.0,-999.0,69,-99.99,,,0.00,weatherlink.com 1.10,2013-01-21 05:54:00,